Location: Lake Arresoe
(56.0000°N, 12.5000°E)
Time: 21:20:18
(UTC+02:00)

Okean 3 - Pass Details

Date: 21 August 2020
Orbit: 576 x 601 km, 82.5° (Epoch: 01 October)

Event Time Altitude Azimuth Distance (km) Brightness Sun altitude
Rises 23:09:37 0° 339° (NNW) 2,865 8.6 -17.6°
Reaches altitude 10° 23:12:13 10° 324° (NW) 1,958 7.4 -17.7°
Maximum altitude 23:15:30 21° 274° (W) 1,355 5.7 -18.0°
Drops below altitude 10° 23:18:46 10° 225° (SW) 1,946 6.0 -18.2°
Enters shadow 23:19:27 - 220° (SW) 2,164 6.1 -18.3°
